Regional Weather Roundup
Issued by NWS

Home | Current Version | Previous Version | Graphics & Text | Print | Product List | Glossary On
Versions: 1 2 3 4 5 6 7 8 9 10 11 12 13 14 15 16 17 18 19 20 21 22 23 24 25 26 27
000
ASUS45 KCYS 161410
RWRWY

WYOMING REGIONAL WEATHER ROUNDUP
NATIONAL WEATHER SERVICE CHEYENNE WY
800 AM MDT WED APR 16 2014

NOTE:  "FAIR" INDICATES FEW OR NO CLOUDS BELOW 12,000 FEET
WITH NO SIGNIFICANT WEATHER AND/OR OBSTRUCTIONS TO VISIBILITY.

WYZ001-161500-
YELLOWSTONE NATIONAL PARK

CITY           SKY/WX    TMP DP  RH WIND       PRES   REMARKS
LK YELLOWSTONE   N/A     16  13  88 E3        29.99R
W YELLOWSTONE  NOT AVBL

$$
WYZ002>013-054>058-071-098>099-161500-
NORTHERN WYOMING

CITY           SKY/WX    TMP DP  RH WIND       PRES   REMARKS
JACKSON        SUNNY     21  19  93 MISG      30.00R
CODY           SUNNY     30  25  80 CALM      29.94R
GREYBULL       PTSUNNY   38  32  79 N12       29.95R WCI  30
WORLAND        CLOUDY    37  30  75 SW6       29.96R WCI  32
SHERIDAN       CLOUDY    39  32  76 NW20      29.93R WCI  29
BUFFALO        MOSUNNY   34  29  82 NW18G30   29.92R WCI  23
GILLETTE       CLOUDY    35  31  85 NW18G25   29.88R WCI  24
HULETT         CLOUDY    36  32  87 NW10      29.88  WCI  28
NEWCASTLE      FAIR      36  32  87 NW20      29.85  WCI  25

$$
WYZ014>020-022>026-101>103-161500-
CENTRAL WYOMING

CITY           SKY/WX    TMP DP  RH WIND       PRES   REMARKS
BIG PINEY      MOSUNNY   24  15  68 CALM      29.99R
PINEDALE       SUNNY     21  16  79 N7        29.99R WCI  13
DUBOIS         FAIR      27  14  59 W12       29.94R WCI  16
LANDER         MOSUNNY   31  26  82 CALM      29.95R
RIVERTON       SUNNY     32  29  88 SW6       29.96R WCI  26
CASPER         CLOUDY    32  28  85 W8        29.94R WCI  25
DOUGLAS        CLOUDY    35  31  85 W16       29.92R WCI  25

$$
WYZ021-027>030-104>119-161500-
SOUTHERN WYOMING

CITY           SKY/WX    TMP DP  RH WIND       PRES   REMARKS
EVANSTON       PTSUNNY   30  12  47 N6        29.99S WCI  24
FORT BRIDGER   PTSUNNY   31  15  52 W5        30.01S WCI  26
ROCK SPRINGS   SUNNY     30  11  45 W17       29.97R WCI  18
DIXON          FAIR      32  25  73 CALM      30.01R
RAWLINS        SUNNY     31  24  75 SW10      29.95R WCI  22
SARATOGA       FAIR      32  23  69 W14G20    29.96R WCI  22
LARAMIE        PTSUNNY   29  25  85 NW22      29.91R WCI  15
CHEYENNE       SUNNY     35  25  66 NW22G30   29.87R WCI  23
TORRINGTON     SUNNY     40  30  67 NW20G31   29.85R WCI  30
PINE BLUFFS    PTSUNNY   36  32  87 NW18      29.88R WCI  25

$$



USA.gov is the U.S. government's official web portal to all federal, state and local government web resources and services.